This is the latest recevied weather packets stored in our database for station/object KM4KMS. If no packets are shown the sender has not sent any weather packets the latest 10 day(s).
| Time | Temp. | Humidity | Pressure | Rain* | Wind** | Luminosity | Snow |
|---|---|---|---|---|---|---|---|
| 1777636076 | 8.33° C | 80% | 1012.3 hPa | 0 mm | - | 70 W/m² | - |
| 1777635773 | 7.78° C | 81% | 1012.4 hPa | 0 mm | - | 65 W/m² | - |
| 1777635470 | 7.78° C | 81% | 1012.4 hPa | 0 mm | - | 54 W/m² | - |
| 1777635167 | 7.22° C | 83% | 1012.4 hPa | 0 mm | - | 36 W/m² | - |
| 1777634863 | 7.22° C | 83% | 1012.1 hPa | 0 mm | - | 25 W/m² | - |
| 1777634560 | 7.22° C | 83% | 1012 hPa | 0 mm | - | 21 W/m² | - |
| 1777634257 | 7.22° C | 83% | 1012.1 hPa | 0 mm | - | 16 W/m² | - |
| 1777633953 | 7.22° C | 83% | 1012 hPa | 0 mm | - | 14 W/m² | - |
| 1777633651 | 7.22° C | 83% | 1011.9 hPa | 0 mm | - | 12 W/m² | - |
| 1777633349 | 7.22° C | 82% | 1012.3 hPa | 0 mm | - | 8 W/m² | - |
| 1777633046 | 7.22° C | 83% | 1012.3 hPa | 0 mm | - | 5 W/m² | - |
| 1777632742 | 7.22° C | 83% | 1012.2 hPa | 0 mm | - | 3 W/m² | - |
| 1777632438 | 6.67° C | 83% | 1012.2 hPa | 0 mm | - | 1 W/m² | - |
| 1777632136 | 6.67° C | 84% | 1012.4 hPa | 0 mm | - | 0 W/m² | - |
| 1777631833 | 6.67° C | 84% | 1012.3 hPa | 0 mm | - | 0 W/m² | - |
| 1777631532 | 6.67° C | 83% | 1012.3 hPa | 0 mm | - | 0 W/m² | - |
| 1777631228 | 6.67° C | 83% | 1012.3 hPa | 0 mm | - | 0 W/m² | - |
| 1777630925 | 6.67° C | 82% | 1012.5 hPa | 0 mm | - | 0 W/m² | - |
| 1777630621 | 6.67° C | 81% | 1012.6 hPa | 0 mm | - | 0 W/m² | - |
| 1777630318 | 6.67° C | 82% | 1012.4 hPa | 0 mm | - | 0 W/m² | - |
| 1777630016 | 6.67° C | 82% | 1012.7 hPa | 0 mm | - | 0 W/m² | - |
| 1777629713 | 6.67° C | 81% | 1012.4 hPa | 0 mm | - | 0 W/m² | - |
| 1777629409 | 6.67° C | 82% | 1012.4 hPa | 0 mm | - | 0 W/m² | - |
| 1777629105 | 7.22° C | 81% | 1012.5 hPa | 0 mm | - | 0 W/m² | - |
| 1777628802 | 7.22° C | 82% | 1012.5 hPa | 0 mm | - | 0 W/m² | - |
* Rain latest hour (hover to see other rain measurements)
** Current wind speed in m/s (hover to see current wind gust speed)